{"data":{"norad_id":67239,"epoch":"2026-09-19T23:31:03.380736Z","epoch_age_seconds":147915,"freshness":"FRESH","line1":"1 67239U 25311D   26262.97990024 -.00000111  00000+0  28472-4 0  9997","line2":"2 67239  50.0037 136.1096 0000241 328.9928  31.0930 13.29326933 35946","mean_motion":13.29326933,"eccentricity":2.41e-5,"inclination_deg":50.0037,"raan_deg":136.1096,"arg_perigee_deg":328.9928,"mean_anomaly_deg":31.093,"bstar":2.8472e-5,"rev_number":3594,"period_min":108.3254964789,"perigee_km":1149.1216384124,"apogee_km":1149.4844610228,"semimajor_km":7527.4400497176,"source":"CELESTRAK","updated_at":"2026-09-21T09:00:16.508601Z"}}